This demonstration page uses our WeatherBlox Daily Observations layout. Learn more.

Left ArrowRight Arrow

Hourly Observations for March 7, 2022

Temp ( °F °C ) Dew Point ( °F °C ) Humidity (%) Winds ( mph kmh ) Pressure ( in mb ) Visibility ( mi km ) Precip ( " mm )
12:08 am 00:08 Cloudy with Thunderstorms 52 11.1 50 10 93 93 N 6 9 29.90 1012 3 5 0.10 2.54
12:17 am 00:17 Cloudy with Strong Thunderstorms 52 11.1 50 10 93 93 NNE 8 13 29.88 1012 2 3 0.20 5.08
12:34 am 00:34 Cloudy with Nearby Thunderstorms 52 11.1 51 10.6 97 97 NNE 8 13 29.87 1011 2 3 0.35 8.89
12:44 am 00:44 Cloudy with Nearby Thunderstorms 52 11.1 51 10.6 97 97 ENE 13 20 29.83 1010 2 3 0.44 11.18
12:51 am 00:51 Cloudy with Nearby Thunderstorms 52 11 52 11 100 100 ENE 13 20 29.81 1009 4 6 0.45 11.43
12:53 am 00:53 Cloudy with Light Rain 53 11.7 51 10.6 93 93 ENE 12 19 29.80 1009 5 8 0.45 11.43
1:01 am 01:01 Cloudy with Light Rain 53 11.7 52 11.1 96 96 Calm 29.82 1010 7 11 0.00 0.00
1:43 am 01:43 Cloudy with Mist and Fog 53 11.7 52 11.1 96 96 NW 6 9 29.80 1009 6 10 0.00 0.00
1:53 am 01:53 Cloudy with Mist and Fog 53 11.7 52 11.1 96 96 E 3 6 29.78 1008 6 10 0.00 0.00
2:00 am 02:00 Cloudy with Mist and Fog 53 11.7 52 11.1 96 96 ESE 5 7 29.76 1008 6 10 0.00 0.00
2:53 am 02:53 Cloudy 58 14.4 56 13.3 93 93 VRB 3 6 29.69 1005 10 16 0.01 0.25
3:36 am 03:36 Cloudy with Nearby Thunderstorms 61 16.1 57 13.9 87 87 S 9 15 29.64 1004 10 16 0.00 0.00
3:53 am 03:53 Cloudy 63 17.2 57 13.9 81 81 S 8 13 29.63 1003 10 16 0.00 0.00
4:04 am 04:04 Cloudy with Nearby Thunderstorms 64 17.8 57 13.9 78 78 SW 10 17 29.65 1004 10 16 0.00 0.00
4:51 am 04:51 Cloudy with Nearby Thunderstorms 57 14 55 13 94 94 undefined N/A 29.72 1006 2 2 0.17 4.32
4:53 am 04:53 Cloudy with Nearby Thunderstorms 58 14.4 56 13.3 93 93 W 13 20 29.72 1006 1 2 0.20 5.08
5:02 am 05:02 Cloudy with Nearby Thunderstorms 58 14.4 56 13.3 93 93 W 9 15 29.72 1006 3 4 0.03 0.76
5:10 am 05:10 Cloudy with Nearby Thunderstorms 57 13.9 55 12.8 93 93 W 7 11 29.72 1006 3 5 0.06 1.52
5:19 am 05:19 Cloudy with Rain 57 13.9 55 12.8 93 93 W 5 7 29.72 1006 3 5 0.09 2.29
5:30 am 05:30 Cloudy with Rain 56 13.3 55 12.8 97 97 W 5 7 29.72 1006 3 4 0.14 3.56
5:53 am 05:53 Cloudy with Light Rain 56 13.3 54 12.2 93 93 Calm 29.69 1005 4 6 0.22 5.59
6:48 am 06:48 Cloudy with Rain 55 13 54 12 94 94 Calm 29.73 1007 3 5 0.11 2.79
6:53 am 06:53 Cloudy with Rain 55 12.8 54 12.2 96 96 Calm 29.72 1006 3 5 0.13 3.30
7:00 am 07:00 Cloudy with Rain 55 12.8 54 12.2 96 96 Calm 29.71 1006 4 6 0.02 0.51
7:53 am 07:53 Cloudy with Light Rain 59 15 57 13.9 93 93 VRB 7 11 29.68 1005 4 6 0.11 2.79
8:53 am 08:53 Cloudy with Light Rain 60 15.6 57 13.9 90 90 S 8 13 29.66 1004 6 10 0.05 1.27
9:35 am 09:35 Cloudy 60 15.6 58 14.4 93 93 W 8 13 29.70 1006 10 16 0.00 0.00
9:48 am 09:48 Cloudy 61 16 57 14 88 88 WSW 8 13 29.70 1006 10 16 0.00 0.00
9:53 am 09:53 Cloudy 60 15.6 58 14.4 93 93 WSW 9 15 29.71 1006 10 16 0.00 0.00
10:53 am 10:53 Cloudy with Light Rain 60 15.6 57 13.9 90 90 W 8 13 29.69 1005 10 16 0.01 0.25
10:57 am 10:57 Cloudy with Light Rain 58 14.4 55 12.8 90 90 WNW 12 19 29.70 1006 10 16 0.00 0.00
11:53 am 11:53 Cloudy 49 9.4 46 7.8 90 90 W 22 35 29.78 1009 8 13 0.01 0.25
12:27 pm 12:27 Cloudy 45 7.2 41 5 86 86 W 15 24 29.87 1011 10 16 0.00 0.00
12:45 pm 12:45 Cloudy 43 6.1 38 3.3 82 82 W 13 20 29.87 1011 10 16 0.00 0.00
12:53 pm 12:53 Cloudy 43 6.1 38 3.3 82 82 W 15 24 29.87 1012 10 16 0.00 0.00
1:09 pm 13:09 Cloudy 43 6.1 37 2.8 80 80 W 18 30 29.88 1012 10 16 0.00 0.00
1:53 pm 13:53 Cloudy 44 6.7 36 2.2 73 73 WNW 15 24 29.91 1013 10 16 0.00 0.00
2:53 pm 14:53 Cloudy 42 5.6 34 1.1 73 73 W 17 28 29.95 1014 10 16 0.00 0.00
3:53 pm 15:53 Cloudy with Light Rain 41 5 36 2.2 82 82 WNW 16 26 29.98 1015 10 16 0.01 0.25
4:53 pm 16:53 Cloudy 40 4.4 35 1.7 83 83 NW 14 22 30.03 1017 10 16 0.00 0.00
5:53 pm 17:53 Cloudy 40 4.4 33 0.6 77 77 WNW 14 22 30.07 1018 10 16 0.00 0.00
6:53 pm 18:53 Cloudy 38 3.3 30 -1.1 73 73 WNW 17 28 30.12 1020 10 16 0.00 0.00
7:53 pm 19:53 Cloudy 38 3.3 30 -1.1 73 73 W 8 13 30.15 1021 10 16 0.00 0.00
8:53 pm 20:53 Cloudy 37 2.8 29 -1.7 73 73 WNW 10 17 30.18 1022 10 16 0.00 0.00
9:53 pm 21:53 Cloudy 37 2.8 28 -2.2 70 70 NW 9 15 30.20 1023 10 16 0.00 0.00
10:53 pm 22:53 Cloudy 37 2.8 27 -2.8 67 67 WNW 10 17 30.22 1023 10 16 0.00 0.00
11:14 pm 23:14 Cloudy 37 2.8 27 -2.8 67 67 W 5 7 30.25 1024 10 16 0.00 0.00
11:53 pm 23:53 Cloudy 37 2.8 27 -2.8 67 67 WNW 7 11 30.23 1024 10 16 0.00 0.00

Powered by AerisWeather